When you browse on this site, cookies collect data to enhance your experience and personalize the content and advertising you see.
Visit our Privacy Policy to learn more. By continuing to use the site, you agree to this use of cookies and data.

Hourly Weather Ahwaz

Today, 12 August, Wednesday

Time Temperature Precipitation Wind Pressure Humidity
00:00 +38°C° 0 mm 8 mps 748 mmHg 22%
01:00 +36°C° 0 mm 7 mps 748 mmHg 23%
02:00 +35°C° 0 mm 6 mps 747 mmHg 24%
03:00 +34°C° 0 mm 6 mps 747 mmHg 24%
04:00 +34°C° 0 mm 6 mps 747 mmHg 24%
05:00 +34°C° 0 mm 5 mps 748 mmHg 25%
06:00 +34°C° 0 mm 5 mps 748 mmHg 25%
07:00 +38°C° 0 mm 6 mps 748 mmHg 21%
08:00 +41°C° 0 mm 7 mps 748 mmHg 18%
09:00 +45°C° 0 mm 8 mps 748 mmHg 14%
10:00 +46°C° 0 mm 7 mps 748 mmHg 12%
11:00 +47°C° 0 mm 7 mps 748 mmHg 9%
12:00 +49°C° 0 mm 6 mps 748 mmHg 7%
13:00 +49°C° 0 mm 6 mps 748 mmHg 7%
14:00 +51°C° 0 mm 6 mps 747 mmHg 6%
15:00 +49°C° 0 mm 5 mps 747 mmHg 7%
16:00 +48°C° 0 mm 5 mps 747 mmHg 7%
17:00 +47°C° 0 mm 5 mps 748 mmHg 8%
18:00 +45°C° 0 mm 4 mps 748 mmHg 9%
19:00 +44°C° 0 mm 4 mps 748 mmHg 10%
20:00 +42°C° 0 mm 4 mps 748 mmHg 11%
21:00 +40°C° 0 mm 5 mps 748 mmHg 13%
22:00 +39°C° 0 mm 5 mps 748 mmHg 13%
23:00 +37°C° 0 mm 4 mps 748 mmHg 13%

Tomorrow, 13 August, Thursday

Time Temperature Precipitation Wind Pressure Humidity
00:00 +36°C° 0 mm 4 mps 748 mmHg 14%
01:00 +35°C° 0 mm 4 mps 748 mmHg 16%
02:00 +35°C° 0 mm 4 mps 747 mmHg 19%
03:00 +34°C° 0 mm 4 mps 747 mmHg 22%
04:00 +34°C° 0 mm 4 mps 747 mmHg 23%
05:00 +34°C° 0 mm 4 mps 748 mmHg 25%
06:00 +34°C° 0 mm 4 mps 748 mmHg 26%
07:00 +37°C° 0 mm 5 mps 748 mmHg 22%
08:00 +41°C° 0 mm 6 mps 748 mmHg 18%
09:00 +45°C° 0 mm 7 mps 748 mmHg 14%
10:00 +47°C° 0 mm 6 mps 747 mmHg 13%
11:00 +48°C° 0 mm 6 mps 747 mmHg 11%
12:00 +51°C° 0 mm 6 mps 747 mmHg 9%
13:00 +51°C° 0 mm 6 mps 746 mmHg 9%
14:00 +52°C° 0 mm 6 mps 746 mmHg 8%
15:00 +52°C° 0 mm 6 mps 745 mmHg 7%
16:00 +50°C° 0 mm 5 mps 745 mmHg 8%
17:00 +49°C° 0 mm 5 mps 745 mmHg 8%
18:00 +48°C° 0 mm 5 mps 745 mmHg 9%
19:00 +46°C° 0 mm 5 mps 745 mmHg 10%
20:00 +43°C° 0 mm 5 mps 745 mmHg 12%
21:00 +42°C° 0 mm 5 mps 745 mmHg 13%
22:00 +41°C° 0 mm 6 mps 745 mmHg 14%
23:00 +40°C° 0 mm 6 mps 745 mmHg 15%

Day after tomorrow, 14 August, Friday

Time Temperature Precipitation Wind Pressure Humidity
00:00 +39°C° 0 mm 7 mps 745 mmHg 17%
01:00 +39°C° 0 mm 7 mps 744 mmHg 17%
02:00 +38°C° 0 mm 7 mps 744 mmHg 17%
03:00 +38°C° 0 mm 7 mps 744 mmHg 18%
04:00 +38°C° 0 mm 6 mps 744 mmHg 18%
05:00 +36°C° 0 mm 6 mps 744 mmHg 18%
06:00 +36°C° 0 mm 5 mps 745 mmHg 18%
07:00 +40°C° 0 mm 7 mps 745 mmHg 15%
08:00 +44°C° 0 mm 8 mps 745 mmHg 12%
09:00 +48°C° 0 mm 9 mps 745 mmHg 10%
10:00 +50°C° 0 mm 9 mps 745 mmHg 8%
11:00 +51°C° 0 mm 9 mps 744 mmHg 7%
12:00 +53°C° 0 mm 9 mps 744 mmHg 6%
13:00 +54°C° 0 mm 9 mps 744 mmHg 6%
14:00 +54°C° 0 mm 8 mps 743 mmHg 6%
15:00 +54°C° 0 mm 8 mps 743 mmHg 6%
16:00 +52°C° 0 mm 7 mps 743 mmHg 6%
17:00 +51°C° 0 mm 6 mps 743 mmHg 6%
18:00 +48°C° 0 mm 5 mps 743 mmHg 7%
19:00 +46°C° 0 mm 5 mps 743 mmHg 8%
20:00 +43°C° 0 mm 5 mps 743 mmHg 9%
21:00 +41°C° 0 mm 5 mps 743 mmHg 10%
22:00 +40°C° 0 mm 5 mps 743 mmHg 11%
23:00 +40°C° 0 mm 5 mps 743 mmHg 12%

15 August, Saturday

Time Temperature Precipitation Wind Pressure Humidity
00:00 +39°C° 0 mm 6 mps 743 mmHg 13%
01:00 +37°C° 0 mm 5 mps 743 mmHg 13%
02:00 +36°C° 0 mm 5 mps 743 mmHg 13%
03:00 +36°C° 0 mm 4 mps 743 mmHg 13%
04:00 +35°C° 0 mm 4 mps 743 mmHg 13%
05:00 +35°C° 0 mm 4 mps 743 mmHg 14%
06:00 +34°C° 0 mm 4 mps 744 mmHg 14%
07:00 +37°C° 0 mm 5 mps 744 mmHg 13%
08:00 +41°C° 0 mm 5 mps 744 mmHg 11%
09:00 +45°C° 0 mm 6 mps 745 mmHg 9%
10:00 +47°C° 0 mm 7 mps 745 mmHg 8%
11:00 +51°C° 0 mm 8 mps 744 mmHg 7%
12:00 +54°C° 0 mm 9 mps 744 mmHg 5%
13:00 +54°C° 0 mm 9 mps 744 mmHg 5%
14:00 +54°C° 0 mm 9 mps 744 mmHg 5%
15:00 +54°C° 0 mm 9 mps 743 mmHg 5%
16:00 +52°C° 0 mm 8 mps 743 mmHg 5%
17:00 +51°C° 0 mm 8 mps 743 mmHg 5%
18:00 +49°C° 0 mm 7 mps 743 mmHg 5%
19:00 +46°C° 0 mm 7 mps 744 mmHg 6%
20:00 +44°C° 0 mm 6 mps 744 mmHg 7%
21:00 +41°C° 0 mm 6 mps 744 mmHg 8%
22:00 +40°C° 0 mm 6 mps 744 mmHg 9%
23:00 +39°C° 0 mm 5 mps 744 mmHg 10%

16 August, Sunday

Time Temperature Precipitation Wind Pressure Humidity
00:00 +37°C° 0 mm 4 mps 744 mmHg 11%
01:00 +36°C° 0 mm 4 mps 744 mmHg 12%
02:00 +35°C° 0 mm 4 mps 744 mmHg 13%
03:00 +34°C° 0 mm 3 mps 744 mmHg 14%
04:00 +33°C° 0 mm 3 mps 744 mmHg 14%
05:00 +33°C° 0 mm 3 mps 744 mmHg 15%
06:00 +33°C° 0 mm 3 mps 744 mmHg 16%
07:00 +37°C° 0 mm 4 mps 744 mmHg 13%
08:00 +41°C° 0 mm 6 mps 745 mmHg 10%
09:00 +46°C° 0 mm 7 mps 745 mmHg 7%
10:00 +49°C° 0 mm 8 mps 745 mmHg 7%
11:00 +51°C° 0 mm 8 mps 745 mmHg 6%
12:00 +54°C° 0 mm 9 mps 745 mmHg 5%
13:00 +54°C° 0 mm 9 mps 745 mmHg 5%
14:00 +54°C° 0 mm 9 mps 745 mmHg 5%
15:00 +54°C° 0 mm 9 mps 744 mmHg 5%
16:00 +52°C° 0 mm 8 mps 744 mmHg 5%
17:00 +50°C° 0 mm 7 mps 744 mmHg 5%
18:00 +49°C° 0 mm 7 mps 744 mmHg 5%
19:00 +46°C° 0 mm 6 mps 744 mmHg 6%
20:00 +44°C° 0 mm 6 mps 745 mmHg 7%
21:00 +41°C° 0 mm 6 mps 745 mmHg 8%
22:00 +40°C° 0 mm 6 mps 745 mmHg 9%
23:00 +39°C° 0 mm 6 mps 745 mmHg 10%

17 August, Monday

Time Temperature Precipitation Wind Pressure Humidity
00:00 +38°C° 0 mm 6 mps 744 mmHg 11%
01:00 +38°C° 0 mm 6 mps 744 mmHg 12%
02:00 +36°C° 0 mm 5 mps 744 mmHg 12%
03:00 +35°C° 0 mm 5 mps 744 mmHg 12%
04:00 +35°C° 0 mm 4 mps 744 mmHg 12%
05:00 +34°C° 0 mm 4 mps 745 mmHg 12%
06:00 +34°C° 0 mm 4 mps 745 mmHg 12%
07:00 +39°C° 0 mm 6 mps 745 mmHg 10%
08:00 +44°C° 0 mm 8 mps 745 mmHg 8%
09:00 +49°C° 0 mm 9 mps 745 mmHg 6%
10:00 +50°C° 0 mm 9 mps 745 mmHg 5%
11:00 +53°C° 0 mm 10 mps 745 mmHg 4%
12:00 +54°C° 0 mm 10 mps 745 mmHg 4%
13:00 +54°C° 0 mm 9 mps 744 mmHg 4%
14:00 +54°C° 0 mm 9 mps 744 mmHg 4%
15:00 +54°C° 0 mm 9 mps 743 mmHg 3%
16:00 +52°C° 0 mm 8 mps 743 mmHg 4%
17:00 +50°C° 0 mm 7 mps 743 mmHg 4%
18:00 +48°C° 0 mm 6 mps 743 mmHg 5%
19:00 +46°C° 0 mm 7 mps 744 mmHg 5%
20:00 +44°C° 0 mm 7 mps 744 mmHg 6%
21:00 +41°C° 0 mm 7 mps 744 mmHg 7%
22:00 +40°C° 0 mm 7 mps 744 mmHg 7%
23:00 +40°C° 0 mm 7 mps 744 mmHg 8%
Show more